Main page
METAR-TAF:

METAR-TAF

Airports :

Winter Haven's Gilbert Airport

Winter Haven, Florida, United States

latitude: 28-03-38N, longitude: 081-45-27W, elevation: 144 ft

Current weather observation

The report was made 15 minutes ago, at 21:53 UTC
Wind 8 mph from the South
Temperature 88°F
Humidity 36%
Pressure 30.15 in. Hg
Visibility: 10 miles
Clear sky

METAR: KGIF 272153Z AUTO 17007KT 10SM CLR 31/14 A3015 RMK AO2 SLP207 T03060144

Time: 17:08 (22:08 UTC)


TAF: missing

Weather observations and forecasts of more than 4000 airports (METAR and TAF reports).

The available stations are represented by yellow and red dots on the map.

Hover mouse over dot to see the name of the station.

Then click to see weather observations and forecasts.

To change the map : click on the green buttons with a black cross to zoom in, on the green button with a dash to zoom out, or on the green arrows for adjacent maps.


METAR-TAF: